Regional Weather Roundup
Issued by NWS

Home | Current Version | Previous Version | Graphics & Text | Print | Product List | Glossary On
Versions: 1 2 3 4 5 6 7 8 9 10 11 12 13 14 15 16 17 18 19 20 21 22 23 24 25 26 27 28 29 30 31 32 33 34 35 36 37 38 39 40 41 42 43 44 45 46 47 48 49 50
000
ASUS43 KOAX 250902
RWRNE

WEATHER ROUNDUP FOR NEBRASKA
NATIONAL WEATHER SERVICE OMAHA NE
300 AM CST SUN JAN 25 2015

NOTES: SATELLITE DATA IS BEING USED TO AUGMENT CLOUD COVER ABOVE
       12000 FEET.
       "FAIR" INDICATES FEW OR NO CLOUDS BELOW 12,000 FEET WITH NO
       SIGNIFICANT WEATHER AND/OR OBSTRUCTIONS TO VISIBILITY.

  * THESE STATIONS DO NOT REPORT WEATHER SUCH AS RAIN...SNOW OR FOG.

NEZ001>004-019>022-054>056-251000-
NEBRASKA PANHANDLE

CITY           SKY/WX    TMP DP  RH WIND       PRES   REMARKS
SCOTTSBLUFF    PTCLDY    37  27  67 W18       30.09R WCI  27
ALLIANCE       CLEAR     33  25  72 W18       30.03R WCI  22
CHADRON        CLEAR     35  26  69 W21       30.05R WCI  24
SIDNEY         PTCLDY    35  25  66 NW14      30.09R WCI  26
$$

NEZ057>060-069>072-079>082-251000-
SOUTHWEST NEBRASKA

CITY           SKY/WX    TMP DP  RH WIND       PRES   REMARKS
NORTH PLATTE   CLEAR     34  28  79 NW10      29.95R WCI  26
IMPERIAL       CLEAR     39  25  57 NW23G33   30.00S WCI  28
LEXINGTON      MOCLDY    41  30  63 NW22G33   29.91R
MCCOOK         CLEAR     40  28  62 NW23G31   29.96R WCI  30
$$

NEZ005>010-023>029-035>040-094-251000-
NORTH CENTRAL NEBRASKA

CITY           SKY/WX    TMP DP  RH WIND       PRES   REMARKS
VALENTINE      CLEAR     37  30  75 NW24G35   29.93R WCI  26
AINSWORTH      CLOUDY    38  29  70 NW31G45   29.90R WCI  26
BROKEN BOW     PTCLDY    41  29  62 NW32G45   29.86R
ORD            LGT RAIN  38  34  85 NW28G38   29.83R WCI  26
$$

NEZ041-046>049-061>064-073>077-083>087-251000-
SOUTH CENTRAL NEBRASKA

CITY           SKY/WX    TMP DP  RH WIND       PRES   REMARKS
GRAND ISLAND   CLOUDY    40  34  79 NW30G41   29.82R WCI  28
AURORA         CLOUDY    40  33  75 NW28G38   29.80R WCI  29
HASTINGS       CLOUDY    42  33  70 NW30G43   29.82R
KEARNEY *      CLOUDY    43  30  61 N24G39    29.84R
$$

NEZ011>018-030>034-042>045-251000-
NORTHEAST NEBRASKA

CITY           SKY/WX    TMP DP  RH WIND       PRES   REMARKS
NORFOLK        LGT SNOW  34  31  88 NW24G38   29.76R FOG     WCI  21
ALBION         LGT RAIN  36  32  87 NW18G25   29.80R WCI  25
COLUMBUS *     MOCLDY    36  28  75 N23G37    29.77R WCI  24
FREMONT        CLOUDY    38  33  82 NW25G37   29.71R WCI  26
TEKAMAH        LGT RAIN  37  34  89 N23G37    29.69R WCI  26
$$

NEZ050>053-065>068-078-088>093-251000-
SOUTHEAST NEBRASKA

CITY           SKY/WX    TMP DP  RH WIND       PRES   REMARKS
LINCOLN        CLOUDY    41  33  73 NW30G38   29.71R
OMAHA EPPLEY   LGT RAIN  40  37  89 NW18      29.64R WCI  31
FALLS CITY     CLOUDY    44  39  82 NW15      29.65R
$$

NEZ044-045-051>053-067-251000-
OMAHA AREA

CITY           SKY/WX    TMP DP  RH WIND       PRES   REMARKS
OMAHA EPPLEY   LGT RAIN  40  37  89 NW18      29.64R WCI  31
FREMONT        CLOUDY    38  33  82 NW25G37   29.71R WCI  26
OFFUTT AFB     LGT RAIN  41  36  81 NW24G37   29.63R
$$


USA.gov is the U.S. government's official web portal to all federal, state and local government web resources and services.